Location: Newark
(50.1751°N, 5.6239°W)
Time: 14:48:22
(UTC+00:00)

N. Korean satellite - Visible Passes

Search period start: 20 September 2021 00:00
Search period end: 30 September 2021 00:00
Orbit: 448 x 498 km, 97.3° (Epoch: 19 September)

Date Brightness Start Highest point End Pass type
(mag) Time Alt. Az. Time Alt. Az. Time Alt. Az.
21 Sep 8.1 05:23:14 10° NNE 05:26:34 40° E 05:29:56 10° S visible
22 Sep 9.5 04:55:58 10° NE 04:58:40 20° E 05:01:22 10° SE visible
23 Sep 10.2 04:30:03 10° ENE 04:30:39 10° E 04:31:15 10° E visible
24 Sep 7.5 05:33:04 10° NNE 05:36:33 53° E 05:40:03 10° S visible
25 Sep 9.0 05:05:38 10° NE 05:08:40 26° E 05:11:42 10° SSE visible
26 Sep 9.9 04:38:50 10° ENE 04:40:40 13° E 04:42:31 10° ESE visible
28 Sep 8.5 05:15:19 10° NNE 05:18:35 33° E 05:21:53 10° SSE visible
29 Sep 9.7 04:48:10 10° NE 04:50:37 17° E 04:53:05 10° SE visible
